星链-31982 (STARLINK-31982 )

导读

STARLINK-31982是美国SpaceX星链互联网卫星,于2024年6月8日发射,属于星链星座低轨卫星组网批次,承担全球宽带互联网服务部署任务。它运行在近地轨道,依托星链大规模星座部署,可覆盖偏远地区与海洋空域,为用户提供高速低延迟网络接入,是星链第二代组网建设的组成部分。

Basic Information
目录编号:
60022
目录名称:
STARLINK-31982
国际标识:
2024-111G
轨道中心:
EARTH
卫星名称:
星链-31982
卫星全名:
星链-31982 (STARLINK-31982 )
卫星状态:
在轨 (已飞行818 天)
发射日期:
2024-06-08 UTC
国别 :
美国 (US)
星等 :
--
Orbit Information
数据来源 国际轨道数据 AOE轨道数据
星历时间 2026-09-03T22:36:01+0800
23小时前
查看轨道信息
2026-09-03T08:00:00+0800
1天前
查看轨道信息
半长轴 6840.892km 6840.839km
偏心率 0.0001182 0.0001123
轨道倾角 53.161° 53.159°
近地点辐角 83.777° 61.786°
升交点赤经 324.962° 327.806°
平近点角 276.337° 176.102°
近地点 461.946km 461.933km
远地点 463.564km 463.471km
周期 93.849分钟 93.848分钟
每日圈数 15.343828 15.344007
Detailed Information
固有亮度:
5
最大亮度:
1.5
卫星平台:
Starlink v2.0 mini
覆盖范围:
全球
运营商:
太空探索技术公司
运营商所在国:
美国
制造商(研发单位):
太空探索技术公司
制造商所在国:
美国
使用方式:
暂无
Satellite Introduction
星链(Starlink)计划是由太空探索技术公司(SpaceX)提出的一个巨型低轨卫星互联网星座项目,计划在2019年至2024年间在太空搭建由约1.2万颗卫星组成的“星链”网络,其中1584颗将部署在地球上空550千米处的近地轨道,并从2020年开始工作。该卫星仍在工作。
2D Orbit Map
3D Orbit Map
Orbit Altitude Analysis Chart
Orbit Inclination Analysis Chart
Orbit Comprehensive Analysis Chart
View Comprehensive Chart
Conjunction Data List
Event ID Objects TCA Miss Dist (km) Collision Risk Probability Collision Risk Index (CRI) Action
CDM_260903-070406-002206-863422
2026-09-03T
07:04:01+0000
2.021 km
极远距离
2.046373E-6 低风险 0.41
CDM_260905-141505-363606-002221
2026-09-05T
14:15:44+0000
2.517 km
极远距离
1.548379E-6 低风险 0.39
CDM_260827-181106-002206-982821
2026-08-27T
18:11:36+0000
2.917 km
极远距离
9.996642E-7 极低风险 0.35
CDM_260906-124002-057606-002221
2026-09-06T
12:40:26+0000
2.799 km
极远距离
9.845137E-7 极低风险 0.35